Un Pendik — TCOD2 — position and weather

sailwx.info

Track history (hours):
 
Tides and Currents Weather Stations Pressure Air Temp Water Temp Dewpoint Dewpoint Depression Visibility Wind Speed Wind Dir Waves Ship Positions

Un Pendik

Last reported at 2014-Jul-25 12:16 UTC. Time now 2014-Jul-29 06:46 UTC.
Position N 37°28' E 024°04'.

Length 193 m; draft 6.5 m.

Type: Ship (hazmat cat A). MMSI: 271000792.

Date/timePositionNaut miles runAvg speedWind from/ knotsBaromVisibWave heightAir tempDewpointWater temp
2014-Jul-25 12:16N 37°28' E 024°04'2319.9
2014-Jul-25 11:05N 37°47' E 024°21'7120.1
2014-Jul-25 07:32N 38°48' E 025°08'6419.9
2014-Jul-25 04:19N 39°45' E 025°45'1920.2
2014-Jul-25 03:24N 40°00' E 025°59'4615.3
2014-Jul-25 00:22N 40°27' E 026°48'9419.5
2014-Jul-24 19:33N 40°53' E 028°47'1919.1
2014-Jul-24 18:32N 40°51' E 029°12'3 2.9
2014-Jul-24 17:33N 40°51' E 029°16'0 0.0
2014-Jul-24 16:33N 40°51' E 029°16'0 0.0
2014-Jul-24 15:33N 40°51' E 029°16'0 0.0
2014-Jul-24 14:33N 40°51' E 029°16'0 0.0
2014-Jul-24 13:33N 40°51' E 029°16'0 0.0
2014-Jul-24 12:33N 40°51' E 029°16'0 0.0
2014-Jul-24 11:33N 40°51' E 029°16'0 0.0
2014-Jul-24 10:33N 40°51' E 029°16'0 0.0
2014-Jul-24 09:33N 40°51' E 029°16'0 0.0
2014-Jul-24 08:33N 40°51' E 029°16'0 0.0
2014-Jul-24 07:33N 40°51' E 029°16'0 0.0
2014-Jul-24 06:33N 40°51' E 029°16'0 0.0
2014-Jul-24 05:32N 40°51' E 029°16'0 0.0
2014-Jul-24 04:33N 40°51' E 029°16'0 0.0
2014-Jul-24 03:33N 40°51' E 029°16'0 0.0
2014-Jul-24 02:33N 40°51' E 029°16'0 0.0
2014-Jul-24 01:33N 40°51' E 029°16'0 0.0
2014-Jul-24 00:33N 40°51' E 029°16'0 0.0
2014-Jul-23 23:33N 40°51' E 029°16'0 0.0
2014-Jul-23 22:32N 40°51' E 029°16'0 0.0
2014-Jul-23 21:33N 40°51' E 029°16'0 0.0
2014-Jul-23 20:33N 40°51' E 029°16'0 0.0
2014-Jul-23 19:33N 40°51' E 029°16'0 0.0
2014-Jul-23 18:33N 40°51' E 029°16'0 0.0
2014-Jul-23 17:33N 40°51' E 029°16'0 0.0
2014-Jul-23 16:32N 40°51' E 029°16'0 0.0
2014-Jul-23 15:33N 40°51' E 029°16'1010.4
2014-Jul-23 14:34N 40°49' E 029°03'1818.4
2014-Jul-23 13:34N 40°49' E 028°39'1919.0
2014-Jul-23 12:33N 40°47' E 028°14'6218.4
2014-Jul-23 09:09N 40°29' E 026°55'5414.9
2014-Jul-23 05:30N 39°56' E 025°58'1818.5
2014-Jul-23 04:33N 39°41' E 025°47'13719.4
2014-Jul-22 21:27N 37°38' E 024°29'2519.3
2014-Jul-22 20:10N 37°18' E 024°10'2119.1
2014-Jul-22 19:05N 37°01' E 023°55'1119.6
2014-Jul-22 18:30N 36°52' E 023°46'2119.5
2014-Jul-22 17:27N 36°37' E 023°29'1719.3
2014-Jul-22 16:33N 36°25' E 023°13'2519.6
2014-Jul-22 15:15N 36°23' E 022°42'  
2014-Jul-18 19:09N 36°26' E 023°13'3719.6
2014-Jul-18 17:15N 36°58' E 023°38'1519.4
2014-Jul-18 16:30N 37°10' E 023°48'2019.3
2014-Jul-18 15:28N 37°27' E 024°02'2319.5
2014-Jul-18 14:18N 37°45' E 024°18'7419.6
2014-Jul-18 10:32N 38°48' E 025°08'5919.7
2014-Jul-18 07:32N 39°40' E 025°44'11 0.2
2014-Jul-16 05:04N 39°30' E 025°39'13118.9
2014-Jul-15 22:09N 37°33' E 024°24'1219.8
2014-Jul-15 21:31N 37°23' E 024°15'3819.1
2014-Jul-15 19:33N 36°53' E 023°46'  
Track history (hours):
 
Tides and Currents Weather Stations Pressure Air Temp Water Temp Dewpoint Dewpoint Depression Visibility Wind Speed Wind Dir Waves Ship Positions

Un Pendik

Last reported at 2014-Jul-25 12:16 UTC. Time now 2014-Jul-29 06:46 UTC.
Position N 37°28' E 024°04'.

Length 193 m; draft 6.5 m.

Type: Ship (hazmat cat A). MMSI: 271000792.

Date/timePositionNaut miles runAvg speedWind from/ knotsBaromVisibWave heightAir tempDewpointWater temp
2014-Jul-25 12:16N 37°28' E 024°04'2319.9
2014-Jul-25 11:05N 37°47' E 024°21'7120.1
2014-Jul-25 07:32N 38°48' E 025°08'6419.9
2014-Jul-25 04:19N 39°45' E 025°45'1920.2
2014-Jul-25 03:24N 40°00' E 025°59'4615.3
2014-Jul-25 00:22N 40°27' E 026°48'9419.5
2014-Jul-24 19:33N 40°53' E 028°47'1919.1
2014-Jul-24 18:32N 40°51' E 029°12'3 2.9
2014-Jul-24 17:33N 40°51' E 029°16'0 0.0
2014-Jul-24 16:33N 40°51' E 029°16'0 0.0
2014-Jul-24 15:33N 40°51' E 029°16'0 0.0
2014-Jul-24 14:33N 40°51' E 029°16'0 0.0
2014-Jul-24 13:33N 40°51' E 029°16'0 0.0
2014-Jul-24 12:33N 40°51' E 029°16'0 0.0
2014-Jul-24 11:33N 40°51' E 029°16'0 0.0
2014-Jul-24 10:33N 40°51' E 029°16'0 0.0
2014-Jul-24 09:33N 40°51' E 029°16'0 0.0
2014-Jul-24 08:33N 40°51' E 029°16'0 0.0
2014-Jul-24 07:33N 40°51' E 029°16'0 0.0
2014-Jul-24 06:33N 40°51' E 029°16'0 0.0
2014-Jul-24 05:32N 40°51' E 029°16'0 0.0
2014-Jul-24 04:33N 40°51' E 029°16'0 0.0
2014-Jul-24 03:33N 40°51' E 029°16'0 0.0
2014-Jul-24 02:33N 40°51' E 029°16'0 0.0
2014-Jul-24 01:33N 40°51' E 029°16'0 0.0
2014-Jul-24 00:33N 40°51' E 029°16'0 0.0
2014-Jul-23 23:33N 40°51' E 029°16'0 0.0
2014-Jul-23 22:32N 40°51' E 029°16'0 0.0
2014-Jul-23 21:33N 40°51' E 029°16'0 0.0
2014-Jul-23 20:33N 40°51' E 029°16'0 0.0
2014-Jul-23 19:33N 40°51' E 029°16'0 0.0
2014-Jul-23 18:33N 40°51' E 029°16'0 0.0
2014-Jul-23 17:33N 40°51' E 029°16'0 0.0
2014-Jul-23 16:32N 40°51' E 029°16'0 0.0
2014-Jul-23 15:33N 40°51' E 029°16'1010.4
2014-Jul-23 14:34N 40°49' E 029°03'1818.4
2014-Jul-23 13:34N 40°49' E 028°39'1919.0
2014-Jul-23 12:33N 40°47' E 028°14'6218.4
2014-Jul-23 09:09N 40°29' E 026°55'5414.9
2014-Jul-23 05:30N 39°56' E 025°58'1818.5
2014-Jul-23 04:33N 39°41' E 025°47'13719.4
2014-Jul-22 21:27N 37°38' E 024°29'2519.3
2014-Jul-22 20:10N 37°18' E 024°10'2119.1
2014-Jul-22 19:05N 37°01' E 023°55'1119.6
2014-Jul-22 18:30N 36°52' E 023°46'2119.5
2014-Jul-22 17:27N 36°37' E 023°29'1719.3
2014-Jul-22 16:33N 36°25' E 023°13'2519.6
2014-Jul-22 15:15N 36°23' E 022°42'  
2014-Jul-18 19:09N 36°26' E 023°13'3719.6
2014-Jul-18 17:15N 36°58' E 023°38'1519.4
2014-Jul-18 16:30N 37°10' E 023°48'2019.3
2014-Jul-18 15:28N 37°27' E 024°02'2319.5
2014-Jul-18 14:18N 37°45' E 024°18'7419.6
2014-Jul-18 10:32N 38°48' E 025°08'5919.7
2014-Jul-18 07:32N 39°40' E 025°44'11 0.2
2014-Jul-16 05:04N 39°30' E 025°39'13118.9
2014-Jul-15 22:09N 37°33' E 024°24'1219.8
2014-Jul-15 21:31N 37°23' E 024°15'3819.1
2014-Jul-15 19:33N 36°53' E 023°46'  

Dump ship's entire track history